Погода Байрамалы

Погода Байрамалы : погода сейчас, прогноз погоды и архив. Всё, что Вы хотите узнать о погоде Байрамалы!

Поиск расширенной информации на нашем сайте:

Другие новости

Новости СМИ2

Главная страница сайта

Новости сайта

03.07.2017

Напоминаем, что на нашем специализированном сайте Метеоцентр.Азия вы можете получить высокодетализированные автоматические прогнозы погоды по пунктам России, СНГ и мира в авиационном формате (включающие направление и скорость ветра, видимость, явления погоды, количество и форму облачности, нижнюю и верхнюю границу облачности).


Погода Байрамалы - сегодня

Время (UTC), дата Ветер
(°,м/с) 
Видим.   Явления Облачность Т
(°С)
Тd
(°С)
f(%) Тe
(°С)
Pmin
(гПа)
dP
(гПа)
Po
(мм)
O2
(г/м3)
Тmin Tmax R s Состояние
почвы
15 18.11.18 тихо ()   4000 м    ясно 
+11 +7.7 80 +11  1024.1  0.4  746  288    +16.8       
18 18.11.18 тихо ()   4000 м    ясно 
+8.8 +7.1 89 +9  1024.6  0.3  747  290    +16.8       
21 18.11.18 тихо ()   4000 м    ясно 
+7.6 +6.2 91 +8  1022.9  -1.7  745  291           
00 19.11.18 тихо ()   4000 м    ясно 
+6.1 +5.4 95 +6  1022.7  -0.4  745  293           
03 19.11.18 тихо ()   4000 м    8/0 средняя 
[As trans]
+6 +5.1 94 +6  1023.1  0.4  745  293           
06 19.11.18 тихо ()   4000 м    ясно 
+12.6 +8 74 +13  1022.7  0.3  746  286  +5.9         
09 19.11.18 270 (З) 4000 м    9/0 верхняя 
[Cs]
+16.3 +8.2 59 +18  1021.8  -0.5  745  282           
12 19.11.18 тихо ()   4000 м    6/0 средняя 
[As trans]
+14.4 +7.6 64 +14  1022.3  0.3  746  284           
15 19.11.18 270 (З) 4000 м    10/10 300 м 
[Frnb]
+11.8 +7.7 76 +12  1025  2.3  747  287    +17.5       
18 19.11.18 250 (З) 4000 м  слаб. дождь  10/10 300 м 
[Ns]
+8.9 +7.8 93 +10  1027.3  1.9  749  291    +17.5       
21 19.11.18 тихо ()   4000 м  {дождь}  9/0 средняя 
[Ac As]
+8.5 +7.4 93 +9  1027.2  -0.1  749  291           
00 20.11.18 тихо ()   4000 м  {дождь}  10/10 600 м 
[Sc]
+7.7 +6.2 90 +8  1028.1  0.8  749  293           
03 20.11.18 тихо ()   4000 м    10/10 600 м 
[Sc]
+7.7 +6.5 92 +8  1029.4  1.3  750  293         
06 20.11.18 тихо ()   4000 м    10/10 600 м 
[Sc]
+9.1 +6.7 85 +9  1030  0.6  751  292  +7.6       
09 20.11.18 110 (В) 4000 м    9/9 1000 м 
[Sc]
+11.1 +7.4 78 +12  1028.4  -1.3  750  289           
12 20.11.18 060 (СВ) 4000 м    9/0 верхняя 
[Cs]
+10.7 +7.1 78 +12  1026.7  -1.7  748  289           
15 20.11.18 070 (В) 4000 м    6/0 верхняя 
[Ci fib]
+8.3 +6.4 88 +8  1026.5  -0.4  748  291    +12.1       
18 20.11.18 070 (В) 4000 м    8/0 верхняя 
[Ci fib]
+7.2 +6.1 93 +8  1025  -1.6  747  292    +12.1       
21 20.11.18 090 (В) 4000 м    10/0 средняя 
[Ac As]
+8.3 +6.8 90 +8  1022.1  -2.7  745  290           
00 21.11.18 170 (Ю) 4000 м    10/0 средняя 
[Ac As]
+8.5 +7 90 +8  1018.9  -3  743  289           
03 21.11.18 110 (В) 4000 м    10/0 средняя 
[Ac As]
+9.4 +7.1 86 +8  1017.1  -1.6  741  288           
06 21.11.18 150 (ЮВ) 4000 м  слаб. дождь  10/10 300 м 
[Ns]
+10.2 +9 92 +10  1015.4  -1.7  740  286  +7.2         
09 21.11.18 160 (Ю) 4000 м    10/10 600 м 
[Sc]
+13.7 +10.2 79 +16  1012.2  -2.9  738  281           
12 21.11.18 тихо ()   4000 м  {дождь}  10/10 1000 м 
[Sc]
+15.1 +12.4 84 +20  1010.5  -1.4  737  279           
15 21.11.18 тихо ()   4000 м    8/0 средняя 
[Ac As]
+11.8 +10.4 91 +14  1013.5  2.6  739  283    +16     
Время (UTC), дата Ветер
(°,м/с) 
Видим.   Явления Облачность Т
(°С)
Тd
(°С)
f(%) Тe
(°С)
Pmin
(гПа)
dP
(гПа)
Po
(мм)
O2
(г/м3)
Тmin Tmax R s Состояние
почвы

Для получения пояснительной информации подведите курсор к названию столбца.

ПОГОДА Байрамалы - архив

Всё, что Вы хотите узнать о погоде Байрамалы - удобно и подробно!

Выберите нужную дату (начиная с 1 января 2015* года) и нажмите кнопку "Найти".
Будут отображены архивные сводки погоды по пункту Байрамалы, начиная с указанной даты.


Отображать данные в формате CSV (для использования в таблицах Excel)


Внимание! Наш архив погоды предназначен исключительно для личного некоммерческого использования в познавательных целях. Если Вам необходимы официальные справки о состоянии погоды (для производственных, юридических, коммерческих и т.п. целей), обращайтесь в органы Росгидромета.

*Примечание: данная дата относится к архиву по метеостанциям СССР (Россия, СНГ, Балтия).
Архив по метеостанциям Зарубежной Европы и Азии (кроме Китая) хранится 10 дней, по другим регионам земного шара (Китай, Африка, Америка, Австралия, Океания) - 1 день.

Байрамалы - район местоположения метеостанции


Название, широта, долгота, высота метеостанции:
Байрамалы 37.6°ш. 62.2°д. 240 м над ур. моря [Туркменистан]

Дополнительная информация

В oтличие oт бoльшинства пoгoдных сайтoв мы публикуем пoдрoбную метеoинфoрмацию в детальнoм прoфессиoнальнoм фoрмате.

Характеристики температуры и влажнoсти вoздуха измеряются на высoте 2 м в тени вдали oт зданий и деревьев.
Скoрoсть ветра измеряется на высoте 10 м (на урoвне рoста челoвека скoрoсть ветра ниже в 1.5-2 раза). Если метеoстанция нахoдится в гoрoде или в лесу, тo скoрoсть ветра занижена на 2-4 м/с пo сравнению с oткрытым местoм. Скoрoсть ветра над акватoриями крупных рек и oзёр, а также на вершинах хoлмoв на 2-5 м/с выше, чем в oбычных услoвиях.
Атмoсфернoе давление в разных тoчках местнoсти мoжет значительнo oтличаться oт давления на метеoстанции, в зависимoсти oт услoвий рельефа (при пoдъёме на 10 м давление пoнижается примернo на 1 мм рт.ст.).